Location: Newark
(41.7833°N, 12.7667°E)
Time: 15:13:43
(UTC+00:00)

ISS - Visible Passes

Search period start: 21 July 2019 00:00
Search period end: 31 July 2019 00:00
Orbit: 409 x 418 km, 51.6° (Epoch: 21 July)

Date Brightness Start Highest point End Pass type
(mag) Time Alt. Az. Time Alt. Az. Time Alt. Az.
21 Jul -1.0 00:17:20 10° NW 00:18:01 15° NW 00:18:01 15° NW visible
21 Jul -1.2 20:13:11 10° WNW 20:15:56 23° NNW 20:18:41 10° NE visible
21 Jul -0.6 21:51:28 10° NW 21:53:30 15° N 21:55:32 10° NE visible
21 Jul -1.0 23:28:09 10° NW 23:29:25 18° NNW 23:29:25 18° NNW visible
22 Jul -1.7 19:23:26 10° W 19:26:28 31° NNW 19:29:30 10° NE visible
22 Jul -0.7 21:01:50 10° NW 21:03:55 15° N 21:06:00 10° NE visible
22 Jul -1.1 22:38:56 10° NW 22:41:12 20° N 22:41:12 20° N visible
23 Jul -0.8 20:12:04 10° NW 20:14:20 17° N 20:16:36 10° NNE visible
23 Jul -1.1 21:49:40 10° NNW 21:51:58 17° N 21:53:09 15° NE visible
24 Jul -1.0 19:22:13 10° WNW 19:24:46 20° NNW 19:27:19 10° NE visible
24 Jul -0.8 21:00:16 10° NW 21:02:22 15° N 21:04:29 10° NE visible
24 Jul -1.0 22:36:44 10° NW 22:37:59 19° NNW 22:37:59 19° NNW visible
25 Jul -0.9 20:10:43 10° NW 20:12:46 15° N 20:14:48 10° NE visible
25 Jul -1.6 21:47:30 10° NW 21:50:04 24° NNE 21:50:04 24° NNE visible
26 Jul -0.9 19:21:00 10° NW 19:23:07 16° N 19:25:15 10° NNE visible
26 Jul -1.4 20:58:14 10° NW 21:00:45 19° NNE 21:02:11 15° NE visible
26 Jul -0.7 22:34:33 10° NW 22:35:01 13° NW 22:35:01 13° NW visible
27 Jul -1.1 20:08:54 10° NNW 20:11:09 17° N 20:13:23 10° NE visible
27 Jul -1.7 21:45:14 10° NW 21:47:10 28° NNW 21:47:10 28° NNW visible
28 Jul -1.0 19:19:25 10° NW 19:21:30 15° N 19:23:34 10° NE visible
28 Jul -2.3 20:55:57 10° NW 20:58:58 30° NNE 20:59:21 29° NE visible
29 Jul -1.7 20:06:41 10° NW 20:09:24 23° NNE 20:11:33 13° ENE visible
29 Jul -1.4 21:43:03 10° WNW 21:44:22 22° WNW 21:44:22 22° WNW visible
30 Jul -1.4 19:17:21 10° NNW 19:19:47 18° NNE 19:22:13 10° ENE visible
30 Jul -3.2 20:53:39 10° NW 20:56:36 56° N 20:56:36 56° N visible
